| time (UTC) | temp F | wind direction | speed MPH | gust MPH | rain 1hr in | rain 24hr in | rain mn in | humidity % | barometer mb |
| 20260503231934 | 52 | 315 | 1.0 | 6.0 | 0.00 | 0.00 | 0.00 | 73 | 1008.7 |
| 20260503230906 | 52 | 238 | 2.0 | 6.0 | 0.00 | 0.00 | 0.00 | 73 | 1008.6 |
| 20260503225909 | 52 | 260 | 2.0 | 5.0 | 0.00 | 0.00 | 0.00 | 74 | 1008.7 |
| 20260503223745 | 51 | 250 | 2.0 | 7.0 | 0.00 | 0.00 | 0.00 | 75 | 1008.9 |
| 20260503222755 | 51 | 233 | 1.0 | 7.0 | 0.00 | 0.00 | 0.00 | 76 | 1008.9 |
| 20260503221747 | 51 | 265 | 2.0 | 6.0 | 0.00 | 0.00 | 0.00 | 77 | 1009.0 |
| 20260503220757 | 51 | 270 | 1.0 | 6.0 | 0.00 | 0.00 | 0.00 | 77 | 1009.1 |
| 20260503215743 | 51 | 269 | 1.0 | 6.0 | 0.00 | 0.00 | 0.00 | 78 | 1009.3 |
| 20260503214717 | 51 | 240 | 2.0 | 7.0 | 0.00 | 0.00 | 0.00 | 77 | 1009.3 |
| 20260503213713 | 51 | 202 | 1.0 | 7.0 | 0.00 | 0.00 | 0.00 | 77 | 1009.3 |
| 20260503211516 | 52 | 231 | 2.0 | 11.0 | 0.00 | 0.00 | 0.00 | 73 | 1009.1 |
| 20260503210450 | 53 | 316 | 3.0 | 11.0 | 0.00 | 0.00 | 0.00 | 71 | 1009.1 |
| 20260503205429 | 54 | 316 | 3.0 | 10.0 | 0.00 | 0.00 | 0.00 | 66 | 1008.9 |
| 20260503204440 | 55 | 267 | 4.0 | 11.0 | 0.00 | 0.00 | 0.00 | 63 | 1008.6 |
| 20260503203435 | 56 | 264 | 4.0 | 11.0 | 0.00 | 0.00 | 0.00 | 55 | 1008.7 |
| 20260503202427 | 57 | 250 | 3.0 | 8.0 | 0.00 | 0.00 | 0.00 | 51 | 1008.4 |
| 20260503200322 | 55 | 272 | 0.0 | 6.0 | 0.00 | 0.00 | 0.00 | 51 | 1008.4 |
| 20260503195317 | 55 | 240 | 0.0 | 6.0 | 0.00 | 0.00 | 0.00 | 51 | 1008.6 |
| 20260503194306 | 56 | 215 | 0.0 | 2.0 | 0.00 | 0.00 | 0.00 | 49 | 1008.5 |
| 20260503193253 | 56 | 184 | 0.0 | 0.0 | 0.00 | 0.00 | 0.00 | 51 | 1008.6 |
| 20260503192306 | 56 | 97 | 0.0 | 0.0 | 0.00 | 0.00 | 0.00 | 51 | 1008.8 |
| 20260503185010 | 56 | 137 | 0.0 | 5.0 | 0.00 | 0.00 | 0.00 | 47 | 1009.7 |
| 20260503183953 | 56 | 184 | 0.0 | 4.0 | 0.00 | 0.00 | 0.00 | 45 | 1009.8 |
| 20260503182947 | 56 | 240 | 0.0 | 4.0 | 0.00 | 0.00 | 0.00 | 44 | 1009.9 |
| 20260503181914 | 56 | 136 | 1.0 | 4.0 | 0.00 | 0.00 | 0.00 | 40 | 1010.2 |
| 20260503180930 | 56 | 184 | 0.0 | 4.0 | 0.00 | 0.00 | 0.00 | 41 | 1010.3 |
| 20260503175935 | 55 | 103 | 0.0 | 8.0 | 0.00 | 0.00 | 0.00 | 41 | 1010.4 |
| 20260503174948 | 55 | 217 | 1.0 | 8.0 | 0.00 | 0.00 | 0.00 | 41 | 1010.6 |
| 20260503173929 | 55 | 206 | 1.0 | 6.0 | 0.00 | 0.00 | 0.00 | 41 | 1010.9 |
| 20260503172918 | 55 | 61 | 1.0 | 8.0 | 0.00 | 0.00 | 0.00 | 42 | 1011.1 |
| 20260503171845 | 54 | 193 | 0.0 | 8.0 | 0.00 | 0.00 | 0.00 | 42 | 1011.2 |
| 20260503150435 | 49 | 197 | 0.0 | 4.0 | 0.00 | 0.00 | 0.00 | 50 | 1013.0 |
| 20260503090114 | 31 | 264 | 0.0 | 0.0 | 0.00 | 0.00 | 0.00 | 81 | 1014.2 |
| 20260503080755 | 30 | 264 | 0.0 | 0.0 | 0.00 | 0.00 | 0.00 | 77 | 1014.6 |
| 20260503072536 | 31 | 264 | 0.0 | 0.0 | 0.00 | 0.00 | 0.00 | 74 | 1014.6 |
| 20260503071531 | 31 | 264 | 0.0 | 0.0 | 0.00 | 0.00 | 0.00 | 74 | 1014.6 |
| 20260503070529 | 32 | 264 | 0.0 | 0.0 | 0.00 | 0.00 | 0.00 | 74 | 1014.6 |
| 20260503054435 | 34 | 264 | 0.0 | 0.0 | 0.00 | 0.00 | 0.00 | 69 | 1015.0 |
| 20260503051138 | 34 | 264 | 0.0 | 0.0 | 0.00 | 0.00 | 0.00 | 66 | 1015.2 |
| 20260503050202 | 34 | 264 | 0.0 | 0.0 | 0.00 | 0.00 | 0.00 | 67 | 1015.2 |
| 20260503045202 | 35 | 264 | 0.0 | 0.0 | 0.00 | 0.00 | 0.00 | 65 | 1015.2 |
| 20260503044220 | 36 | 264 | 0.0 | 0.0 | 0.00 | 0.00 | 0.00 | 64 | 1015.3 |
| 20260503043226 | 37 | 264 | 0.0 | 0.0 | 0.00 | 0.00 | 0.00 | 61 | 1015.3 |
| 20260503042215 | 37 | 264 | 0.0 | 0.0 | 0.00 | 0.00 | 0.00 | 60 | 1015.4 |
| 20260503041203 | 38 | 264 | 0.0 | 0.0 | 0.00 | 0.00 | 0.00 | 59 | 1015.4 |
| 20260503040214 | 38 | 264 | 0.0 | 0.0 | 0.00 | 0.00 | 0.00 | 59 | 1015.4 |
| 20260503035212 | 38 | 264 | 0.0 | 0.0 | 0.00 | 0.00 | 0.00 | 60 | 1015.4 |
| 20260503034149 | 38 | 262 | 0.0 | 0.0 | 0.00 | 0.00 | 0.00 | 62 | 1015.4 |
| 20260503033129 | 38 | 262 | 0.0 | 0.0 | 0.00 | 0.00 | 0.00 | 63 | 1015.4 |
| 20260503032055 | 39 | 262 | 0.0 | 0.0 | 0.00 | 0.00 | 0.00 | 62 | 1015.4 |
| 20260503025930 | 39 | 262 | 0.0 | 0.0 | 0.00 | 0.00 | 0.00 | 60 | 1015.5 |
| 20260503024925 | 40 | 262 | 0.0 | 0.0 | 0.00 | 0.00 | 0.00 | 59 | 1015.5 |
| 20260503023859 | 40 | 262 | 0.0 | 0.0 | 0.00 | 0.00 | 0.00 | 58 | 1015.5 |
| 20260503021734 | 41 | 262 | 0.0 | 0.0 | 0.00 | 0.00 | 0.00 | 57 | 1015.6 |
| 20260503020734 | 41 | 252 | 0.0 | 0.0 | 0.00 | 0.00 | 0.00 | 57 | 1015.6 |
| 20260503015730 | 41 | 250 | 0.0 | 0.0 | 0.00 | 0.00 | 0.00 | 57 | 1015.5 |
| 20260503013649 | 42 | 258 | 0.0 | 0.0 | 0.00 | 0.00 | 0.00 | 56 | 1015.5 |
| 20260503012653 | 42 | 258 | 0.0 | 0.0 | 0.00 | 0.00 | 0.00 | 55 | 1015.5 |
| 20260503011651 | 42 | 259 | 0.0 | 0.0 | 0.00 | 0.00 | 0.00 | 56 | 1015.4 |
| 20260503010715 | 42 | 249 | 0.0 | 0.0 | 0.00 | 0.00 | 0.00 | 57 | 1015.4 |
| 20260503005716 | 42 | 249 | 0.0 | 0.0 | 0.00 | 0.00 | 0.00 | 56 | 1015.4 |
| 20260503004740 | 42 | 249 | 0.0 | 0.0 | 0.00 | 0.00 | 0.00 | 55 | 1015.3 |
| 20260503003733 | 43 | 249 | 0.0 | 0.0 | 0.00 | 0.00 | 0.00 | 53 | 1015.3 |
| 20260503002726 | 43 | 252 | 0.0 | 1.0 | 0.00 | 0.00 | 0.00 | 52 | 1015.2 |
| 20260503001709 | 43 | 267 | 0.0 | 0.0 | 0.00 | 0.00 | 0.00 | 52 | 1015.3 |
| 20260503000727 | 43 | 271 | 0.0 | 3.0 | 0.00 | 0.00 | 0.00 | 51 | 1015.3 |
| 20260502235736 | 44 | 272 | 1.0 | 3.0 | 0.00 | 0.00 | 0.00 | 50 | 1015.2 |
| 20260502234707 | 44 | 254 | 0.0 | 3.0 | 0.00 | 0.00 | 0.00 | 53 | 1015.1 |